Location: Lake Almanor
(40.2485°N, 121.1442°W)
Time: 01:42:56
(UTC-08:00)

STARLINK-1123 - Pass Details

Date: 02 February 2020
Orbit: 530 x 531 km, 53.0° (Epoch: 18 February)

Event Time Altitude Azimuth Distance (km) Brightness Sun altitude
Rises 17:47:42 0° 310° (NW) 2,684 7.6 -5.1°
Reaches altitude 10° 17:49:56 10° 313° (NW) 1,792 6.7 -5.5°
Maximum altitude 17:54:00 70° 38° (NE) 572 3.5 -6.2°
Drops below altitude 10° 17:58:02 10° 122° (ESE) 1,787 5.8 -7.0°
Enters shadow 18:01:02 -3° 125° (SE) 2,982 7.0 -7.5°
Exits shadow 18:28:14 -61° 129° (SE) 11,736 10.3 -12.6°
